Grissom Arb, IN

3:57 AM EDT on August 26, 2016 (GMT -0400)
Grissom Air Reserve Base

Weather History for KGUS - November, 2011

Change the Weather History Date:

Friday, November 4, 2011

  Actual Average Record
Temperature  
Mean Temperature 44 °F -  
Max Temperature 53 °F 53 °F 77 °F (2003)
Min Temperature 34 °F 36 °F 28 °F (1998)
Degree Days  
Heating Degree Days 22    
Moisture  
Dew Point 34 °F    
Average Humidity 77    
Maximum Humidity 100    
Minimum Humidity 28    
Precipitation  
Precipitation 0.00 in - - ()
Sea Level Pressure  
Sea Level Pressure 30.23 in    
Wind  
Wind Speed 11 mph (NE)    
Max Wind Speed 14 mph    
Max Gust Speed -    
Visibility 10 miles    
Events      
Averages and records for this station are not official NWS values.
T = Trace of Precipitation, MM = Missing Value Source: NWS Daily Summary

Daily Weather History Graph

Daily Weather History Graph

Search for Another Location

Airport or City:

Trip Planner

Search our weather history database for the weather conditions in past years. The results will help you decide how hot, cold, wet, or windy it might be!

Date:

Astronomy

Nov. 04, 2011 Rise Set
Actual Time 8:17 AM EDT 6:37 PM EDT
Civil Twilight 7:49 AM EDT 7:06 PM EDT
Nautical Twilight 7:16 AM EDT 7:38 PM EDT
Astronomical Twilight 6:45 AM EDT 8:10 PM EDT
Moon 3:30 PM EDT (11/4) 2:27 AM EDT (11/4)
Length of Visible Light 11h 16m
Length of Day
10h 19m
Waxing Gibbous, 69% of the Moon is Illuminated
Nov 4
Waxing Gibbous
Nov 10
Full
Nov 18
Last Quarter
Nov 25
New
Dec 2
First Quarter

Hourly Weather History & Observations

Time (EDT) Temp. Windchill Dew Point Humidity Pressure Visibility Wind Dir Wind Speed Gust Speed Precip Events Conditions
12:55 AM 45.5 °F 39.2 °F 45.5 °F 100% 30.09 in 10.0 mi NNE 13.8 mph - N/A   Overcast
1:02 AM 46.4 °F 40.4 °F 44.6 °F 93% 30.09 in 10.0 mi NNE 13.8 mph - N/A   Overcast
1:55 AM 45.1 °F 38.8 °F 45.1 °F 100% 30.10 in 10.0 mi NNE 13.8 mph - N/A   Overcast
2:55 AM 43.3 °F 37.2 °F 43.3 °F 100% 30.11 in 10.0 mi NNE 11.5 mph - N/A   Mostly Cloudy
3:10 AM 42.8 °F 35.8 °F 42.8 °F 100% 30.12 in 10.0 mi NNE 13.8 mph - N/A   Scattered Clouds
3:55 AM 41.7 °F 34.4 °F 41.5 °F 99% 30.13 in 10.0 mi NE 13.8 mph - N/A   Partly Cloudy
4:55 AM 40.1 °F 32.7 °F 39.9 °F 99% 30.15 in 10.0 mi NE 12.7 mph - N/A   Clear
5:55 AM 38.7 °F 30.9 °F 38.7 °F 100% 30.17 in 10.0 mi NE 12.7 mph - N/A   Clear
6:55 AM 36.9 °F 29.1 °F 36.9 °F 100% 30.20 in 10.0 mi NE 11.5 mph - N/A   Clear
7:55 AM 35.1 °F 28.6 °F 35.1 °F 100% 30.22 in 10.0 mi NE 8.1 mph - N/A   Clear
8:55 AM 34.7 °F 28.1 °F 34.7 °F 100% 30.23 in 10.0 mi NE 8.1 mph - N/A   Clear
9:55 AM 38.5 °F 31.1 °F 38.5 °F 100% 30.26 in 10.0 mi NE 11.5 mph - N/A   Clear
10:32 AM 41.0 °F 33.9 °F 41.0 °F 100% 30.25 in 10.0 mi ENE 12.7 mph - N/A   Clear
10:55 AM 41.7 °F 35.6 °F 41.5 °F 99% 30.27 in 10.0 mi ENE 10.4 mph - N/A   Clear
11:55 AM 45.3 °F 39.3 °F 41.7 °F 87% 30.29 in 10.0 mi ENE 12.7 mph - N/A   Clear
12:55 PM 48.0 °F - 37.4 °F 67% 30.30 in 10.0 mi ENE 11.5 mph - N/A   Clear
1:55 PM 50.9 °F - 28.8 °F 43% 30.29 in 10.0 mi NE 9.2 mph - N/A   Clear
2:55 PM 52.7 °F - 27.0 °F 37% 30.27 in 10.0 mi NE 11.5 mph - N/A   Clear
3:55 PM 53.4 °F - 22.8 °F 30% 30.26 in 10.0 mi NE 8.1 mph - N/A   Clear
4:55 PM 53.2 °F - 21.0 °F 28% 30.27 in 10.0 mi ENE 9.2 mph - N/A   Clear
5:55 PM 49.6 °F - 23.4 °F 36% 30.27 in 10.0 mi NE 9.2 mph - N/A   Clear
6:55 PM 44.6 °F 40.7 °F 25.7 °F 48% 30.28 in 10.0 mi ENE 6.9 mph - N/A   Clear
7:55 PM 40.6 °F 38.6 °F 27.0 °F 58% 30.30 in 10.0 mi ENE 3.5 mph - N/A   Clear
8:55 PM 41.7 °F 37.3 °F 25.3 °F 52% 30.30 in 10.0 mi East 6.9 mph - N/A   Clear
9:55 PM 41.0 °F 38.0 °F 23.5 °F 50% 30.31 in 10.0 mi East 4.6 mph - N/A   Clear
10:55 PM 37.6 °F 32.3 °F 27.0 °F 66% 30.31 in 10.0 mi ESE 6.9 mph - N/A   Clear
11:55 PM 35.8 °F 30.9 °F 30.2 °F 80% 30.31 in 10.0 mi East 5.8 mph - N/A   Clear